TimeMDT,TemperatureF,Dew PointF,Humidity,Sea Level PressureIn,VisibilityMPH,Wind Direction,Wind SpeedMPH,Gust SpeedMPH,PrecipitationIn,Events,Conditions,WindDirDegrees,DateUTC
12:48 AM,46.0,25.0,44,29.92,-9999.0,West,4.6,-,N/A,,Unknown,270,2012-09-26 06:48:00
1:48 AM,44.1,24.1,45,29.93,-9999.0,Calm,Calm,-,N/A,,Unknown,0,2012-09-26 07:48:00
2:48 AM,45.0,24.1,44,29.93,-9999.0,Calm,Calm,-,N/A,,Unknown,0,2012-09-26 08:48:00
3:48 AM,42.1,24.1,49,29.94,-9999.0,WNW,3.5,-,N/A,,Unknown,290,2012-09-26 09:48:00
4:48 AM,41.0,24.1,51,29.95,-9999.0,Calm,Calm,-,N/A,,Unknown,0,2012-09-26 10:48:00
5:48 AM,42.1,24.1,49,29.96,-9999.0,West,5.8,-,N/A,,Unknown,280,2012-09-26 11:48:00
6:48 AM,44.1,26.1,49,29.97,-9999.0,West,3.5,-,N/A,,Unknown,280,2012-09-26 12:48:00
7:48 AM,43.0,25.0,49,30.01,-9999.0,Calm,Calm,-,N/A,,Unknown,0,2012-09-26 13:48:00
8:48 AM,52.0,28.0,40,30.01,-9999.0,West,5.8,-,N/A,,Unknown,280,2012-09-26 14:48:00
9:48 AM,64.9,36.0,34,30.02,-9999.0,WNW,10.4,-,N/A,,Unknown,300,2012-09-26 15:48:00
10:48 AM,68.0,37.0,32,30.02,-9999.0,NNW,9.2,-,N/A,,Unknown,340,2012-09-26 16:48:00
11:48 AM,66.9,37.9,34,30.04,-9999.0,WNW,12.7,-,N/A,,Unknown,300,2012-09-26 17:48:00
12:48 PM,66.9,39.0,36,30.05,-9999.0,WNW,10.4,-,N/A,,Unknown,300,2012-09-26 18:48:00
1:48 PM,68.0,42.1,39,30.03,-9999.0,NNW,11.5,-,N/A,,Unknown,340,2012-09-26 19:48:00
2:48 PM,70.0,39.9,33,30.05,-9999.0,WNW,10.4,-,N/A,,Unknown,300,2012-09-26 20:48:00
3:48 PM,69.1,42.1,38,30.06,-9999.0,WNW,8.1,-,N/A,,Unknown,300,2012-09-26 21:48:00
4:48 PM,69.1,42.1,38,30.05,-9999.0,North,6.9,-,N/A,,Unknown,10,2012-09-26 22:48:00
5:48 PM,69.1,42.1,38,30.05,-9999.0,NNE,5.8,-,N/A,,Unknown,20,2012-09-26 23:48:00
6:48 PM,66.9,39.0,36,30.05,-9999.0,NNE,6.9,-,N/A,,Unknown,20,2012-09-27 00:48:00
7:48 PM,64.0,39.9,41,30.07,-9999.0,NNW,4.6,-,N/A,,Unknown,340,2012-09-27 01:48:00
8:48 PM,59.0,39.0,48,30.08,-9999.0,West,3.5,-,N/A,,Unknown,280,2012-09-27 02:48:00
9:48 PM,57.9,39.9,51,30.06,-9999.0,WSW,5.8,-,N/A,,Unknown,250,2012-09-27 03:48:00
10:48 PM,57.0,41.0,55,30.08,-9999.0,NW,3.5,-,N/A,,Unknown,320,2012-09-27 04:48:00
11:48 PM,53.1,42.1,66,30.09,-9999.0,WNW,4.6,-,N/A,,Unknown,300,2012-09-27 05:48:00